Location: Bronschhofen
(47.4788°N, 9.0353°E)
Time: 21:21:38
(UTC+00:00)

Cosmos 2298 Rocket - Pass Details

Date: 20 May 2022
Orbit: 775 x 784 km, 74.0° (Epoch: 01 July)

Event Time Altitude Azimuth Distance (km) Brightness Sun altitude
Exits shadow 01:45:33 23° 223° (SW) 1,585 5.0 -15.1°
Maximum altitude 01:48:44 60° 296° (WNW) 890 4.3 -14.8°
Drops below altitude 10° 01:53:59 10° 16° (NNE) 2,338 7.7 -14.3°
Sets 01:56:25 0° 21° (NNE) 3,271 8.8 -14.0°
